"TOA5","MOW","CPU:UNC_MeetingWaters","DataHourly"
"TIMESTAMP","SondeTempC","SpCond","DOSat","DOmg","pH","Turb","BattVolt_Min"
"TS","","","","","","",""
"","Smp","Smp","Smp","Smp","Smp","Smp","Min"
"2003-01-01 00:00:00",11.6800003052,0.298999994993,97.9000015259,10.6300001144,7.17999982834,8.19999980927,12.4499998093
"2003-01-01 01:00:00",11.7700004578,0.310000002384,96.8000030518,10.4799995422,7.17999982834,7.19999980927,12.4399995804
"2003-01-01 02:00:00",12.529999733,0.252000004053,95.5,10.1599998474,7.19000005722,105.400001526,12.4200000763
"2003-01-01 03:00:00",13.7600002289,0.143999993801,99.4000015259,10.3000001907,7.17000007629,275.700012207,12.4099998474
"2003-01-01 04:00:00",14.2399997711,0.0790000036359,100.199996948,10.2700004578,7.03999996185,135.699996948,12.3999996185
"2003-01-01 05:00:00",14.5,0.0769999995828,97.0,9.88000011444,6.92999982834,177.800003052,12.3999996185
"2003-01-01 06:00:00",14.2600002289,0.0839999988675,96.3000030518,9.86999988556,6.71999979019,146.399993896,12.3800001144
"2003-01-01 07:00:00",14.0699996948,0.0960000008345,94.8000030518,9.75,6.69000005722,101.0,12.3699998856
"2003-01-01 08:00:00",13.8800001144,0.108999997377,93.0,9.60999965668,6.69999980927,90.0,12.3699998856
"2003-01-01 09:00:00",13.8900003433,0.122000001371,95.9000015259,9.90999984741,6.76000022888,82.0,12.3699998856
"2003-01-01 10:00:00",14.3000001907,0.126000002027,98.0999984741,10.0399999619,6.86999988556,75.6999969482,12.3599996567
"2003-01-01 11:00:00",14.7700004578,0.0900000035763,97.9000015259,9.92000007629,6.86000013351,70.4000015259,12.4600000381
"2003-01-01 12:00:00",14.779999733,0.097000002861,98.4000015259,9.97000026703,6.78000020981,57.5,12.8299999237
"2003-01-01 13:00:00",14.9200000763,0.105999998748,98.9000015259,9.98999977112,6.80000019073,55.4000015259,12.6099996567
"2003-01-01 14:00:00",14.9899997711,0.120999999344,99.0999984741,9.98999977112,6.80999994278,45.7999992371,12.7600002289
"2003-01-01 15:00:00",15.0,0.140000000596,98.8000030518,9.94999980927,6.82000017166,37.5999984741,12.6499996185
"2003-01-01 16:00:00",14.9099998474,0.153999999166,97.6999969482,9.86999988556,6.84000015259,33.2999992371,12.6700000763
"2003-01-01 17:00:00",14.6099996567,0.165000006557,95.3000030518,9.68000030518,6.82999992371,30.1000003815,12.5600004196
"2003-01-01 18:00:00",14.220000267,0.17499999702,93.1999969482,9.55000019073,6.80999994278,28.7999992371,12.5
"2003-01-01 19:00:00",13.8999996185,0.184000000358,92.3000030518,9.52999973297,6.82999992371,27.2000007629,12.470000267
"2003-01-01 20:00:00",13.5699996948,0.193000003695,92.4000015259,9.60999965668,6.84999990463,21.3999996185,12.4499998093
"2003-01-01 21:00:00",13.279999733,0.20000000298,92.5,9.68999958038,6.88999986649,20.2000007629,12.4300003052
"2003-01-01 22:00:00",13.0,0.207000002265,92.9000015259,9.78999996185,6.90000009537,17.7000007629,12.4099998474
"2003-01-01 23:00:00",12.7299995422,0.21400000155,93.4000015259,9.89000034332,6.92000007629,15.6000003815,12.3900003433
"2003-01-02 00:00:00",12.5,0.221000000834,93.8000030518,9.98999977112,6.94000005722,13.5,12.3800001144
"2003-01-02 01:00:00",12.2700004578,0.226999998093,94.0999984741,10.0699996948,6.96999979019,12.8000001907,12.3599996567
"2003-01-02 02:00:00",12.0500001907,0.231999993324,94.4000015259,10.1499996185,6.98000001907,11.5,12.3299999237
"2003-01-02 03:00:00",11.7700004578,0.237000003457,94.5999984741,10.2399997711,6.96999979019,10.3999996185,12.3100004196
"2003-01-02 04:00:00",11.5200004578,0.240999996662,94.9000015259,10.3299999237,7.0,9.69999980927,12.279999733
"2003-01-02 05:00:00",11.279999733,0.244000002742,95.3000030518,10.4399995804,7.03000020981,8.89999961853,12.2700004578
"2003-01-02 06:00:00",11.0399999619,0.247999995947,95.6999969482,10.5399999619,7.01999998093,8.19999980927,12.2600002289
"2003-01-02 07:00:00",10.8100004196,0.250999987125,95.9000015259,10.6199998856,7.03999996185,7.69999980927,12.25
"2003-01-02 08:00:00",10.5900001526,0.256000012159,96.0999984741,10.6899995804,7.05999994278,7.5,12.2399997711
"2003-01-02 09:00:00",10.5600004196,0.259000003338,98.8000030518,11.0,7.09000015259,6.90000009537,12.4600000381
"2003-01-02 10:00:00",10.8699998856,0.261999994516,103.199996948,11.4099998474,7.13000011444,6.80000019073,12.8699998856
"2003-01-02 11:00:00",11.2100000381,0.263999998569,105.699996948,11.5900001526,7.17999982834,7.40000009537,12.75
"2003-01-02 12:00:00",11.4399995804,0.264999985695,106.199996948,11.5799999237,7.17000007629,6.30000019073,12.6300001144
"2003-01-02 13:00:00",11.5399999619,0.266999989748,105.400001526,11.470000267,7.21000003815,6.30000019073,12.5399999619
"2003-01-02 14:00:00",11.5900001526,0.268000006676,103.900001526,11.2899999619,7.17999982834,6.69999980927,12.4899997711
"2003-01-02 15:00:00",11.6000003815,0.268000006676,102.099998474,11.0900001526,7.17999982834,6.69999980927,12.4499998093
"2003-01-02 16:00:00",11.6199998856,0.266000002623,100.400001526,10.9099998474,7.17000007629,6.5,12.4099998474
"2003-01-02 17:00:00",11.6000003815,0.266000002623,96.6999969482,10.5200004578,7.17000007629,6.40000009537,12.3599996567
"2003-01-02 18:00:00",11.5500001907,0.263999998569,96.3000030518,10.470000267,7.13999986649,7.59999990463,12.3199996948
"2003-01-02 19:00:00",11.529999733,0.263999998569,95.0,10.3400001526,7.11000013351,7.69999980927,12.2899999619
"2003-01-02 20:00:00",11.5500001907,0.266000002623,94.0,10.2299995422,7.09999990463,7.59999990463,12.279999733
"2003-01-02 21:00:00",11.6300001144,0.268000006676,95.0999984741,10.3299999237,7.05999994278,17.0,12.2700004578
"2003-01-02 22:00:00",11.6400003433,0.268000006676,95.3000030518,10.3500003815,7.07999992371,23.6000003815,12.2600002289
"2003-01-02 23:00:00",11.6199998856,0.272000014782,94.5999984741,10.279999733,7.07999992371,27.2999992371,12.2600002289
"2003-01-03 00:00:00",11.6199998856,0.277999997139,93.8000030518,10.1899995804,7.07000017166,21.2999992371,12.25
"2003-01-03 01:00:00",11.6899995804,0.282999992371,94.0999984741,10.2100000381,7.09000015259,15.3999996185,12.25
"2003-01-03 02:00:00",11.720000267,0.282000005245,92.8000030518,10.0600004196,7.09999990463,12.6999998093,12.2399997711
"2003-01-03 03:00:00",11.7399997711,0.277999997139,91.1999969482,9.88000011444,7.09000015259,12.3000001907,12.2299995422
"2003-01-03 04:00:00",11.6999998093,0.268000006676,91.5,9.93000030518,7.05999994278,14.1000003815,12.2299995422
"2003-01-03 05:00:00",11.6999998093,0.245000004768,93.5999984741,10.1499996185,7.03000020981,32.5999984741,12.2299995422
"2003-01-03 06:00:00",12.1499996185,0.187999993563,94.5,10.1400003433,7.09999990463,60.9000015259,12.220000267
"2003-01-03 07:00:00",11.9099998474,0.0860000029206,100.400001526,10.8400001526,7.07999992371,126.800003052,12.2100000381
"2003-01-03 08:00:00",12.0,0.0790000036359,98.3000030518,10.5900001526,6.94999980927,287.0,12.2100000381
"2003-01-03 09:00:00",11.8199996948,0.0839999988675,97.6999969482,10.5799999237,6.80999994278,200.0,12.1999998093
"2003-01-03 10:00:00",11.8199996948,0.0960000008345,97.8000030518,10.5799999237,6.76999998093,166.600006104,12.2299995422
"2003-01-03 11:00:00",11.8699998856,0.111000001431,97.9000015259,10.5799999237,6.78000020981,142.600006104,12.2299995422
"2003-01-03 12:00:00",11.9099998474,0.126000002027,97.1999969482,10.5,6.80999994278,123.300003052,12.2100000381
"2003-01-03 13:00:00",11.9200000763,0.142000004649,96.9000015259,10.4600000381,6.82999992371,96.3000030518,12.1999998093
"2003-01-03 14:00:00",12.0500001907,0.166999995708,97.5,10.4899997711,6.86000013351,98.0999984741,12.3199996948
"2003-01-03 15:00:00",12.3800001144,0.15000000596,95.9000015259,10.2399997711,6.90999984741,129.699996948,12.3400001526
"2003-01-03 16:00:00",12.2399997711,0.165000006557,94.8000030518,10.1599998474,6.92999982834,205.100006104,12.1999998093
"2003-01-03 17:00:00",12.0399999619,0.15000000596,89.8000030518,9.65999984741,6.90000009537,246.899993896,12.1700000763
"2003-01-03 18:00:00",11.779999733,0.142000004649,87.3000030518,9.46000003815,6.80999994278,206.0,12.1700000763
"2003-01-03 19:00:00",11.4200000763,0.143000006676,86.8000030518,9.47000026703,6.71999979019,166.899993896,12.1599998474
"2003-01-03 20:00:00",11.1000003815,0.150999993086,86.9000015259,9.56000041962,6.71999979019,144.699996948,12.1499996185
"2003-01-03 21:00:00",10.779999733,0.163000002503,88.6999969482,9.82999992371,6.73000001907,123.199996948,12.1400003433
"2003-01-03 22:00:00",10.4300003052,0.173999994993,89.1999969482,9.96000003815,6.78000020981,100.699996948,12.1199998856
"2003-01-03 23:00:00",10.0900001526,0.185000002384,90.1999969482,10.1599998474,6.78999996185,80.6999969482,12.1199998856
"2003-01-04 00:00:00",9.76000022888,0.196999996901,91.3000030518,10.3599996567,6.82999992371,61.7999992371,12.1000003815
"2003-01-04 01:00:00",9.47000026703,0.206000000238,92.0,10.5100002289,6.88000011444,51.0,12.1000003815
"2003-01-04 02:00:00",9.18999958038,0.21400000155,93.3000030518,10.7299995422,6.90999984741,34.0,12.0799999237
"2003-01-04 03:00:00",9.01000022888,0.222000002861,95.0,10.970000267,6.92999982834,31.6000003815,12.0799999237
"2003-01-04 04:00:00",8.78999996185,0.229000002146,95.6999969482,11.1199998856,6.98000001907,28.6000003815,12.0699996948
"2003-01-04 05:00:00",8.52999973297,0.233999997377,96.0999984741,11.220000267,7.01000022888,26.2000007629,12.0600004196
"2003-01-04 06:00:00",8.27000045776,0.238999992609,96.6999969482,11.3699998856,7.01999998093,19.8999996185,12.0500001907
"2003-01-04 07:00:00",8.02000045776,0.243000000715,96.6999969482,11.4399995804,7.03000020981,17.7999992371,12.0399999619
"2003-01-04 08:00:00",7.76000022888,0.24699999392,97.3000030518,11.5799999237,7.03000020981,16.6000003815,12.029999733
"2003-01-04 09:00:00",7.63999986649,0.25,98.9000015259,11.8000001907,7.03999996185,15.3999996185,12.0399999619
"2003-01-04 10:00:00",7.67000007629,0.250999987125,101.400001526,12.1000003815,7.07000017166,18.3999996185,12.4399995804
"2003-01-04 11:00:00",7.82000017166,0.252000004053,103.800003052,12.3400001526,7.11000013351,13.5,12.5500001907
"2003-01-04 12:00:00",8.18000030518,0.252000004053,105.400001526,12.4200000763,7.15999984741,16.1000003815,13.220000267
"2003-01-04 13:00:00",8.67000007629,0.252999991179,106.800003052,12.4300003052,7.17000007629,16.0,13.5600004196
"2003-01-04 14:00:00",8.73999977112,0.254000008106,105.900001526,12.3100004196,7.15000009537,12.5,12.6800003052
"2003-01-04 15:00:00",8.73999977112,0.256000012159,103.900001526,12.0799999237,7.13999986649,13.1000003815,12.6000003815
"2003-01-04 16:00:00",8.92000007629,0.256999999285,102.199996948,11.8299999237,7.15000009537,14.1999998093,12.6700000763
"2003-01-04 17:00:00",8.89999961853,0.25799998641,100.400001526,11.6300001144,7.13000011444,14.6999998093,12.5200004578
"2003-01-04 18:00:00",8.63000011444,0.259000003338,98.6999969482,11.5100002289,7.09999990463,15.1999998093,12.4600000381
"2003-01-04 19:00:00",8.18000030518,0.261999994516,98.1999969482,11.5799999237,7.11000013351,10.6000003815,12.4200000763
"2003-01-04 20:00:00",7.84999990463,0.263999998569,98.1999969482,11.6599998474,7.11999988556,15.0,12.3999996185
"2003-01-04 21:00:00",7.57999992371,0.263999998569,98.0,11.7100000381,7.13000011444,13.1999998093,12.3699998856
"2003-01-04 22:00:00",7.48000001907,0.264999985695,97.6999969482,11.7100000381,7.15000009537,11.1999998093,12.3400001526
"2003-01-04 23:00:00",7.28000020981,0.266000002623,97.1999969482,11.720000267,7.15000009537,10.0,12.3199996948
"2003-01-05 00:00:00",7.05000019073,0.266999989748,96.6999969482,11.720000267,7.09000015259,8.89999961853,12.3000001907
"2003-01-05 01:00:00",6.84000015259,0.268999993801,97.0,11.8100004196,7.07999992371,8.19999980927,12.2899999619
"2003-01-05 02:00:00",6.67999982834,0.270000010729,97.0999984741,11.8800001144,7.13999986649,8.80000019073,12.279999733
"2003-01-05 03:00:00",6.44000005722,0.270000010729,97.5999984741,12.0100002289,7.13999986649,8.0,12.2600002289
"2003-01-05 04:00:00",6.26999998093,0.268999993801,97.9000015259,12.1000003815,7.15000009537,8.5,12.25
"2003-01-05 05:00:00",6.13000011444,0.270000010729,97.5,12.0799999237,7.17000007629,7.69999980927,12.2399997711
"2003-01-05 06:00:00",6.0,0.270000010729,98.5,12.25,7.17000007629,7.09999990463,12.220000267
"2003-01-05 07:00:00",5.84000015259,0.270000010729,98.9000015259,12.3500003815,7.17000007629,6.80000019073,12.2100000381
"2003-01-05 08:00:00",5.86000013351,0.270000010729,98.5,12.3000001907,7.17999982834,6.69999980927,12.2100000381
"2003-01-05 09:00:00",5.65999984741,0.270999997854,100.5,12.6099996567,7.19000005722,6.09999990463,12.3599996567
"2003-01-05 10:00:00",6.19999980927,0.270000010729,103.900001526,12.8500003815,7.25,6.0,12.8000001907
"2003-01-05 11:00:00",6.55999994278,0.270000010729,105.900001526,12.9899997711,7.26999998093,6.59999990463,12.5799999237
"2003-01-05 12:00:00",6.90000009537,0.270000010729,107.699996948,13.1000003815,7.28999996185,7.19999980927,12.7600002289
"2003-01-05 13:00:00",7.53000020981,0.270999997854,109.5,13.1099996567,7.32000017166,6.5,13.6099996567
"2003-01-05 14:00:00",7.80000019073,0.273000001907,109.800003052,13.0600004196,7.30999994278,6.19999980927,12.8000001907
"2003-01-05 15:00:00",8.22999954224,0.273999989033,110.599998474,13.0100002289,7.32999992371,6.09999990463,12.7299995422
"2003-01-05 16:00:00",8.44999980927,0.273999989033,108.099998474,12.6499996185,7.30999994278,10.3000001907,12.6599998474
"2003-01-05 17:00:00",8.55000019073,0.275999993086,106.099998474,12.3900003433,7.30000019073,5.59999990463,12.5600004196
"2003-01-05 18:00:00",8.38000011444,0.277000010014,102.699996948,12.0399999619,7.26999998093,6.0,12.5
"2003-01-05 19:00:00",8.22000026703,0.277000010014,100.900001526,11.8699998856,7.23000001907,5.5,12.4600000381
"2003-01-05 20:00:00",7.98999977112,0.277000010014,98.3000030518,11.6300001144,7.19999980927,5.69999980927,12.4200000763
"2003-01-05 21:00:00",7.76000022888,0.277000010014,98.9000015259,11.7700004578,7.19000005722,5.5,12.3999996185
"2003-01-05 22:00:00",7.59000015259,0.277000010014,98.0999984741,11.7299995422,7.17999982834,5.69999980927,12.3699998856
"2003-01-05 23:00:00",7.42000007629,0.275999993086,98.6999969482,11.8500003815,7.19000005722,5.19999980927,12.3599996567
"2003-01-06 00:00:00",7.40999984741,0.277999997139,99.0,11.8800001144,7.19999980927,5.09999990463,12.3400001526
"2003-01-06 01:00:00",7.30000019073,0.277999997139,98.5999984741,11.8699998856,7.19999980927,4.90000009537,12.3299999237
"2003-01-06 02:00:00",7.25,0.279000014067,99.0999984741,11.9399995804,7.21000003815,5.0,12.3199996948
"2003-01-06 03:00:00",7.11999988556,0.280000001192,98.9000015259,11.9600000381,7.19000005722,5.19999980927,12.3000001907
"2003-01-06 04:00:00",7.19000005722,0.279000014067,99.5,12.0100002289,7.19999980927,5.30000019073,12.3000001907
"2003-01-06 05:00:00",7.19999980927,0.280000001192,98.6999969482,11.9200000763,7.21000003815,5.19999980927,12.2899999619
"2003-01-06 06:00:00",7.15000009537,0.280000001192,98.8000030518,11.9399995804,7.21000003815,5.5,12.2899999619
"2003-01-06 07:00:00",7.21000003815,0.282000005245,98.8000030518,11.9200000763,7.21000003815,4.69999980927,12.2700004578
"2003-01-06 08:00:00",7.03000020981,0.282000005245,97.5999984741,11.8299999237,7.19999980927,4.59999990463,12.2600002289
"2003-01-06 09:00:00",6.88999986649,0.282000005245,98.8000030518,12.0200004578,7.19999980927,5.09999990463,12.2700004578
"2003-01-06 10:00:00",7.32000017166,0.282000005245,102.199996948,12.2899999619,7.25,5.40000009537,12.5500001907
"2003-01-06 11:00:00",7.65000009537,0.282000005245,107.400001526,12.8199996948,7.28999996185,4.5,12.6899995804
"2003-01-06 12:00:00",8.22000026703,0.282000005245,109.800003052,12.9300003052,7.36999988556,8.80000019073,12.6800003052
"2003-01-06 13:00:00",8.72000026703,0.282999992371,110.599998474,12.8699998856,7.36999988556,6.40000009537,12.9499998093
"2003-01-06 14:00:00",8.97999954224,0.287000000477,110.599998474,12.779999733,7.36999988556,5.90000009537,12.6199998856
"2003-01-06 15:00:00",9.03999996185,0.284999996424,107.0,12.3400001526,7.32000017166,8.69999980927,12.5100002289
"2003-01-06 16:00:00",8.97000026703,0.284000009298,102.599998474,11.8599996567,7.26999998093,47.2999992371,12.4799995422
"2003-01-06 17:00:00",8.88000011444,0.284000009298,100.0,11.5799999237,7.21999979019,10.3999996185,12.4499998093
"2003-01-06 18:00:00",8.77999973297,0.286000013351,95.4000015259,11.0799999237,7.17000007629,14.1000003815,12.4300003052
"2003-01-06 19:00:00",8.56999969482,0.287999987602,93.1999969482,10.8699998856,7.11000013351,25.0,12.4099998474
"2003-01-06 20:00:00",8.13000011444,0.287000000477,92.0,10.8500003815,7.05999994278,22.0,12.3900003433
"2003-01-06 21:00:00",7.92000007629,0.286000013351,93.1999969482,11.0500001907,7.07000017166,28.7999992371,12.3599996567
"2003-01-06 22:00:00",7.59000015259,0.28900000453,93.9000015259,11.220000267,7.11000013351,30.0,12.3299999237
"2003-01-06 23:00:00",7.23000001907,0.287999987602,95.0,11.4600000381,7.13999986649,24.5,12.3100004196
"2003-01-07 00:00:00",6.80000019073,0.287999987602,96.0999984741,11.720000267,7.15999984741,22.0,12.2899999619
"2003-01-07 01:00:00",6.48999977112,0.287999987602,97.4000015259,11.9600000381,7.17999982834,21.3999996185,12.2600002289
"2003-01-07 02:00:00",6.15000009537,0.287999987602,98.0,12.1400003433,7.19000005722,18.6000003815,12.2399997711
"2003-01-07 03:00:00",5.86000013351,0.287000000477,98.5,12.3000001907,7.23000001907,18.0,12.2299995422
"2003-01-07 04:00:00",5.51000022888,0.287999987602,98.6999969482,12.4300003052,7.21000003815,13.1999998093,12.2100000381
"2003-01-07 05:00:00",5.15000009537,0.28900000453,99.3000030518,12.6300001144,7.25,11.8999996185,12.1899995804
"2003-01-07 06:00:00",5.21999979019,0.287999987602,99.5999984741,12.6400003433,7.26000022888,12.1000003815,12.1899995804
"2003-01-07 07:00:00",4.73000001907,0.289999991655,99.8000030518,12.8299999237,7.25,8.89999961853,12.1700000763
"2003-01-07 08:00:00",4.84999990463,0.28900000453,100.699996948,12.8900003433,7.28000020981,7.40000009537,12.1599998474
"2003-01-07 09:00:00",4.88000011444,0.287999987602,102.300003052,13.1000003815,7.28999996185,10.3000001907,12.1599998474
"2003-01-07 10:00:00",4.73000001907,0.287999987602,105.599998474,13.5699996948,7.30999994278,7.09999990463,12.5200004578
"2003-01-07 11:00:00",4.84000015259,0.287000000477,107.699996948,13.8000001907,7.34999990463,6.80000019073,12.6499996185
"2003-01-07 12:00:00",5.57999992371,0.286000013351,108.699996948,13.6599998474,7.38999986649,5.90000009537,13.720000267
"2003-01-07 13:00:00",6.17999982834,0.287999987602,111.0,13.7399997711,7.40000009537,6.80000019073,13.7100000381
"2003-01-07 14:00:00",6.44000005722,0.291000008583,109.900001526,13.5100002289,7.42000007629,18.2999992371,12.6599998474
"2003-01-07 15:00:00",6.55000019073,0.289999991655,111.400001526,13.6599998474,7.40999984741,9.69999980927,12.6999998093
"2003-01-07 16:00:00",6.84000015259,0.287999987602,108.199996948,13.1800003052,7.40000009537,7.5,12.7700004578
"2003-01-07 17:00:00",6.80000019073,0.28900000453,106.400001526,12.970000267,7.36999988556,6.90000009537,12.5500001907
"2003-01-07 18:00:00",6.65000009537,0.289999991655,103.699996948,12.6800003052,7.34000015259,6.5,12.4899997711
"2003-01-07 19:00:00",6.21999979019,0.291999995708,100.800003052,12.470000267,7.28000020981,7.0,12.4499998093
"2003-01-07 20:00:00",5.80999994278,0.291999995708,97.8000030518,12.220000267,7.23000001907,8.60000038147,12.4200000763
"2003-01-07 21:00:00",5.94000005722,0.289999991655,96.6999969482,12.0500001907,7.21999979019,11.6000003815,12.3999996185
"2003-01-07 22:00:00",5.96000003815,0.28900000453,96.1999969482,11.9799995422,7.19000005722,8.5,12.3900003433
"2003-01-07 23:00:00",6.01000022888,0.28900000453,95.8000030518,11.9200000763,7.17999982834,6.0,12.3900003433
"2003-01-08 00:00:00",5.98999977112,0.287999987602,95.0,11.8199996948,7.17999982834,8.5,12.3900003433
"2003-01-08 01:00:00",6.03999996185,0.28900000453,95.9000015259,11.9200000763,7.17999982834,7.69999980927,12.3800001144
"2003-01-08 02:00:00",6.09000015259,0.289999991655,95.0999984741,11.8100004196,7.17999982834,8.30000019073,12.3699998856
"2003-01-08 03:00:00",6.19000005722,0.291000008583,94.5999984741,11.7100000381,7.17999982834,8.39999961853,12.3599996567
"2003-01-08 04:00:00",6.03000020981,0.289999991655,95.0,11.8100004196,7.17000007629,11.1000003815,12.3500003815
"2003-01-08 05:00:00",5.96000003815,0.291000008583,95.1999969482,11.8500003815,7.17000007629,9.60000038147,12.3299999237
"2003-01-08 06:00:00",5.94999980927,0.293999999762,95.3000030518,11.8699998856,7.17999982834,7.80000019073,12.3100004196
"2003-01-08 07:00:00",5.92000007629,0.293999999762,95.6999969482,11.9200000763,7.19000005722,7.40000009537,12.2899999619
"2003-01-08 08:00:00",5.88999986649,0.296000003815,96.4000015259,12.0200004578,7.19000005722,6.09999990463,12.2700004578
"2003-01-08 09:00:00",6.0,0.29699999094,100.0,12.4399995804,7.21999979019,5.69999980927,12.3999996185
"2003-01-08 10:00:00",6.23999977112,0.298000007868,104.300003052,12.8999996185,7.28000020981,5.40000009537,12.8400001526
"2003-01-08 11:00:00",6.73999977112,0.29699999094,108.199996948,13.2100000381,7.32999992371,5.69999980927,13.0100002289
"2003-01-08 12:00:00",7.48000001907,0.294999986887,112.199996948,13.4399995804,7.40999984741,5.09999990463,13.1999998093
"2003-01-08 13:00:00",8.11999988556,0.296000003815,113.699996948,13.4200000763,7.42999982834,5.40000009537,13.4899997711
"2003-01-08 14:00:00",8.53999996185,0.294999986887,115.699996948,13.5200004578,7.42999982834,4.90000009537,12.9499998093
"2003-01-08 15:00:00",8.75,0.289999991655,113.400001526,13.1700000763,7.46000003815,5.5,12.779999733
"2003-01-08 16:00:00",9.01000022888,0.28900000453,111.099998474,12.8299999237,7.44999980927,4.30000019073,12.779999733
"2003-01-08 17:00:00",9.02999973297,0.291000008583,107.400001526,12.3999996185,7.40999984741,4.69999980927,12.6000003815
"2003-01-08 18:00:00",8.89999961853,0.291999995708,103.300003052,11.9600000381,7.36999988556,5.69999980927,12.5500001907
"2003-01-08 19:00:00",8.75,0.28900000453,99.1999969482,11.529999733,7.30999994278,14.3999996185,12.5100002289
"2003-01-08 20:00:00",8.72000026703,0.287000000477,97.0999984741,11.2899999619,7.28000020981,23.7000007629,12.4899997711
"2003-01-08 21:00:00",8.68000030518,0.28900000453,94.5999984741,11.0100002289,7.23000001907,18.7000007629,12.470000267
"2003-01-08 22:00:00",8.60999965668,0.291000008583,92.9000015259,10.8400001526,7.19000005722,14.8999996185,12.4600000381
"2003-01-08 23:00:00",8.57999992371,0.291999995708,92.1999969482,10.75,7.17000007629,12.3999996185,12.4399995804
"2003-01-09 00:00:00",8.55000019073,0.293000012636,92.0999984741,10.75,7.17000007629,9.69999980927,12.4300003052
"2003-01-09 01:00:00",8.39999961853,0.293999999762,93.1999969482,10.9200000763,7.17999982834,7.69999980927,12.4300003052
"2003-01-09 02:00:00",8.31000041962,0.293999999762,93.6999969482,11.0100002289,7.17999982834,7.19999980927,12.4099998474
"2003-01-09 03:00:00",8.18000030518,0.293999999762,94.1999969482,11.1000003815,7.19000005722,6.59999990463,12.3900003433
"2003-01-09 04:00:00",8.10000038147,0.296000003815,94.8000030518,11.1899995804,7.19999980927,7.69999980927,12.3800001144
"2003-01-09 05:00:00",8.10999965668,0.29699999094,95.1999969482,11.2399997711,7.23000001907,9.19999980927,12.3800001144
"2003-01-09 06:00:00",8.10000038147,0.298000007868,95.6999969482,11.3000001907,7.23999977112,10.6000003815,12.3800001144
"2003-01-09 07:00:00",8.03999996185,0.298999994993,95.9000015259,11.3400001526,7.23999977112,12.1000003815,12.3699998856
"2003-01-09 08:00:00",7.98000001907,0.298999994993,96.5999984741,11.4300003052,7.25,8.60000038147,12.3500003815
"2003-01-09 09:00:00",8.14000034332,0.298999994993,96.4000015259,11.3599996567,7.26999998093,7.80000019073,12.3500003815
"2003-01-09 10:00:00",8.30000019073,0.298000007868,102.800003052,12.0799999237,7.28999996185,6.40000009537,12.6400003433